Tracking 34348 objects as of 9-Jun-2026
HD Live streaming from Space Station
objects crossing your sky now

DELTA 1 DEB

Track DELTA 1 DEB now!
10-day predictions


NORAD ID: 7136
Int'l Code: 1973-086DA
Perigee: 1,416.3 km
Apogee: 1,493.7 km
Inclination: 101.6 °
Period: 114.8 minutes
Semi major axis: 7826 km
RCS: 0.0415 m2 (small)
Launch date: November 6, 1973
Source: United States (US)
Launch site: AIR FORCE WESTERN TEST RANGE (AFWTR)

Note: This is SATELLITE DEBRIS
Your satellite tracking list
Your tracking list is empty




NASA's NSSDC Master Catalog

Two Line Element Set (TLE):
1 07136U 73086DA  26158.84234613  .00000064  00000-0  67071-3 0  9998
2 07136 101.5985 137.1972 0049466  97.9465 325.6736 12.53980410400321
Source of the keplerian elements: AFSPC